Regional Weather Roundup
Issued by NWS

Home | Current Version | Previous Version | Graphics & Text | Print | Product List | Glossary On
Versions: 1 2 3 4 5 6 7 8 9 10 11 12 13 14 15 16 17 18 19 20 21 22 23 24 25 26 27 28 29 30 31 32 33 34 35 36 37 38 39 40 41 42 43 44 45 46 47 48 49 50
000
ASUS45 KCYS 192310
RWRWY

WYOMING REGIONAL WEATHER ROUNDUP
NATIONAL WEATHER SERVICE CHEYENNE WY
500 PM MDT TUE AUG 19 2014

NOTE:  "FAIR" INDICATES FEW OR NO CLOUDS BELOW 12,000 FEET
WITH NO SIGNIFICANT WEATHER AND/OR OBSTRUCTIONS TO VISIBILITY.

WYZ001-200000-
YELLOWSTONE NATIONAL PARK

CITY           SKY/WX    TMP DP  RH WIND       PRES   REMARKS
LK YELLOWSTONE   N/A     62  37  39 N13G23    30.09F
W YELLOWSTONE  NOT AVBL

$$
WYZ002>013-054>058-071-098>099-200000-
NORTHERN WYOMING

CITY           SKY/WX    TMP DP  RH WIND       PRES   REMARKS
JACKSON        CLOUDY    70  39  32 SW3       29.99R
CODY           CLOUDY    79  39  24 S18G25    29.85F
GREYBULL       CLOUDY    86  37  17 NW20      29.75F
WORLAND        CLOUDY    85  37  18 NE5       29.79S
SHERIDAN       PTSUNNY   90  38  16 SE5       29.74F
BUFFALO        PTSUNNY   83  44  25 E5        29.83F
GILLETTE       PTSUNNY   91  33  12 W8        29.78F
HULETT         FAIR      88  41  19 MISG      29.80
NEWCASTLE        N/A     91  36  14 MISG      29.79

$$
WYZ014>020-022>026-101>103-200000-
CENTRAL WYOMING

CITY           SKY/WX    TMP DP  RH WIND       PRES   REMARKS
BIG PINEY      CLOUDY    61  49  64 S18       30.07S
PINEDALE       CLOUDY    61  43  51 E14       30.09R
DUBOIS         CLOUDY    55  45  67 MISG      30.06F
LANDER         CLOUDY    75  46  35 SW3       29.90S
RIVERTON       CLOUDY    81  32  17 W12       29.88F
CASPER         PTSUNNY   85  37  18 SW18G26   29.87F
DOUGLAS        CLOUDY    87  37  17 NW10      29.85F

$$
WYZ021-027>030-104>119-200000-
SOUTHERN WYOMING

CITY           SKY/WX    TMP DP  RH WIND       PRES   REMARKS
EVANSTON       CLOUDY    57  51  80 SE9       30.07F
KEMMERER       CLOUDY    61  45  55 E15       30.06F
FORT BRIDGER     N/A     58  55  88 W6        30.12F
ROCK SPRINGS   LGT RAIN  63  47  55 S14       30.04S
DIXON          FAIR      67  51  56 CALM      30.07F
RAWLINS        PTSUNNY   65  45  48 VRB3      30.05F
SARATOGA       CLOUDY    63  50  63 MISG      30.08F
LARAMIE        PTSUNNY   70  43  37 NE12      30.07F
CHEYENNE       CLOUDY    72  44  36 N17       29.97F
TORRINGTON     PTSUNNY   85  45  24 SW20G31   29.81R
PINE BLUFFS    LGT RAIN  77  45  31 W13G25    29.95R

$$



USA.gov is the U.S. government's official web portal to all federal, state and local government web resources and services.